OneWeb SL0645

operational
NORAD ID: 55809 Int'l Des: 2023-029 Owner: ONEWEBN Country: UK Constellation: oneweb
LEOCIRCULARPOLARONEWEB_TYPE

Über OneWeb SL0645

Beschreibung wird geladen...

Live-Position

3D-Globus wird geladen...

Nächste Überflüge

Höhenverlauf

Altitude vs Time

uPlot chart will show altitude changes over time

Zweizeiliger Elementsatz

1 55809U 23029P 25350.92787878 .00000124 00000-0 27762-3 0 9998
2 55809 87.9188 341.2525 0002248 76.8364 283.3019 13.19724073134867
Epoch: 16. Dez. 2025 • Age: 10 hours

Aktueller Status

Höhe 1214.6 km
Geschwindigkeit 7.25 km/s
Subsatellitenpunkt -74.02°S, 47.57°W
Startdatum 9. März 2023
Alter 2.7 years
Typ internet

Technische Details

Klassifizierung Payload
Masse 148.00 kg
Trockenmasse 140.00 kg
Gesamtmasse 148.00 kg
Länge 1.30 m
Durchmesser 1.00 m
Spannweite 5.00 m
Form Trapezoid+2 pan
Hersteller ONEWUS
Bus-Typ ARROW
Phasenstatus In Orbit
Besitzer/Staat ONEWEBN/UK

Große Konstellationen

Loading constellations...